Ord, NE

2:21 PM CDT on July 22, 2017 (GMT -0500)
Sharp

Weather History for KODX - January, 2014

Change the Weather History Date:

Sunday, January 26, 2014

  Actual Average Record
Temperature  
Mean Temperature 30 °F 25 °F  
Max Temperature 54 °F 38 °F 73 °F (2002)
Min Temperature 5 °F 13 °F -11 °F (2009)
Degree Days  
Heating Degree Days 35 40  
Month to date heating degree days 1027 1053  
Since 1 July heating degree days 0 3777  
Cooling Degree Days 0 0  
Month to date cooling degree days 0 0  
Year to date cooling degree days 0 0  
Moisture  
Dew Point 16 °F    
Average Humidity 50    
Maximum Humidity 70    
Minimum Humidity 30    
Precipitation  
Precipitation T in 0.02 in 0.48 in (1944)
Month to date precipitation 0.06 0.30  
Year to date precipitation 0.06 0.30  
Sea Level Pressure  
Sea Level Pressure 29.89 in    
Wind  
Wind Speed 22 mph (NW)    
Max Wind Speed 43 mph    
Max Gust Speed 54 mph    
Visibility 10 miles    
Events      
T = Trace of Precipitation, MM = Missing Value Source: NWS Daily Summary

Daily Weather History Graph

Daily Weather History Graph

Search for Another Location

Airport or City:

Trip Planner

Search our weather history database for the weather conditions in past years. The results will help you decide how hot, cold, wet, or windy it might be!

Date:

Astronomy

Jan. 26, 2014 Rise Set
Actual Time 7:53 AM CST 5:44 PM CST
Civil Twilight 7:23 AM CST 6:13 PM CST
Nautical Twilight 6:49 AM CST 6:47 PM CST
Astronomical Twilight 6:16 AM CST 7:20 PM CST
Moon 3:32 AM CST (1/26) 1:34 PM CST (1/26)
Length of Visible Light 10h 50m
Length of Day
9h 50m
Waning Crescent, 23% of the Moon is Illuminated
Jan 26
Waning Crescent
Jan 30
New
Feb 6
First Quarter
Feb 14
Full
Feb 22
Last Quarter

Hourly Weather History & Observations

Time (CST) Temp. Windchill Dew Point Humidity Pressure Visibility Wind Dir Wind Speed Gust Speed Precip Events Conditions
12:53 AM 53.1 °F - 26.1 °F 35% 29.63 in 10.0 mi WNW 26.5 mph 38.0 mph N/A   Clear
1:53 AM 51.1 °F - 26.1 °F 38% 29.65 in 10.0 mi NW 25.3 mph 33.4 mph N/A   Clear
2:53 AM 46.9 °F - 27.0 °F 46% 29.67 in 10.0 mi WNW 17.3 mph 24.2 mph N/A   Clear
3:53 AM 44.1 °F 37.1 °F 28.9 °F 55% 29.70 in 10.0 mi NW 15.0 mph - N/A   Clear
4:53 AM 39.9 °F 33.4 °F 28.9 °F 65% 29.72 in 10.0 mi NW 10.4 mph - N/A   Clear
5:53 AM 37.9 °F 29.2 °F 28.0 °F 68% 29.73 in 10.0 mi NW 15.0 mph - N/A   Clear
6:53 AM 37.0 °F 28.9 °F 27.0 °F 67% 29.74 in 10.0 mi NW 12.7 mph - N/A   Clear
7:53 AM 35.1 °F 27.4 °F 26.1 °F 70% 29.73 in 10.0 mi WNW 10.4 mph - N/A   Clear
8:53 AM 39.0 °F 31.4 °F 27.0 °F 62% 29.71 in 10.0 mi WNW 12.7 mph - N/A   Clear
9:53 AM 44.1 °F 37.7 °F 28.9 °F 55% 29.69 in 10.0 mi West 12.7 mph - N/A   Clear
10:53 AM 46.9 °F - 28.0 °F 48% 29.68 in 10.0 mi West 18.4 mph - N/A   Clear
11:53 AM 50.0 °F - 25.0 °F 38% 29.66 in 10.0 mi WNW 25.3 mph 36.8 mph N/A   Mostly Cloudy
12:53 PM 52.0 °F - 25.0 °F 35% 29.64 in 10.0 mi NW 28.8 mph 39.1 mph N/A   Mostly Cloudy
1:53 PM 43.0 °F 31.5 °F 28.0 °F 56% 29.70 in 9.0 mi North 36.8 mph 52.9 mph N/A   Mostly Cloudy
2:53 PM 32.0 °F 16.3 °F 19.0 °F 59% 29.83 in 10.0 mi North 36.8 mph 51.8 mph N/A   Mostly Cloudy
3:53 PM 28.9 °F 14.3 °F 16.0 °F 58% 29.93 in 10.0 mi NNW 26.5 mph 38.0 mph 0.00 in   Overcast
4:53 PM 24.1 °F 5.6 °F 5.0 °F 44% 30.02 in 10.0 mi NNW 35.7 mph 47.2 mph N/A   Overcast
5:53 PM 19.9 °F 0.4 °F 3.0 °F 48% 30.11 in 9.0 mi North 33.4 mph 48.3 mph 0.00 in   Overcast
6:53 PM 17.1 °F -1.7 °F -9.0 °F 31% 30.18 in 10.0 mi North 26.5 mph 39.1 mph N/A   Mostly Cloudy
7:53 PM 14.0 °F -6.2 °F -8.0 °F 37% 30.25 in 10.0 mi NNW 27.6 mph 40.3 mph N/A   Clear
8:53 PM 10.9 °F -7.5 °F -6.0 °F 47% 30.28 in 10.0 mi North 19.6 mph 29.9 mph N/A   Clear
9:53 PM 9.0 °F -10.5 °F -2.9 °F 59% 30.32 in 10.0 mi North 20.7 mph 31.1 mph N/A   Clear
10:53 PM 7.0 °F -14.5 °F -8.0 °F 51% 30.34 in 10.0 mi NNW 24.2 mph 36.8 mph N/A   Clear
11:53 PM 5.0 °F -15.2 °F -9.0 °F 52% 30.36 in 10.0 mi NNW 19.6 mph 28.8 mph N/A   Clear